sat.trackr.live / text

‹ back to catalog

STARLINK-35437

NORAD 66563 · 2025-268G

PAYLOAD ACTIVE UNKNOWN

§ Identity

Operator
Country
US
Launch date
2025-11-21
Launch site
AFETR
Launch vehicle
Mass (kg)
RCS (m²)

Purposes: comms

External: N2YO · Heavens-Above · Gunter

§ Orbital elements

Epoch: 2026-09-20T05:34:04.758528Z

Period
94.27 min
Inclination
43.0049°
Eccentricity
0.0001807
Mean motion
15.27586599 rev/d
Perigee alt
481.8 km
Apogee alt
484.3 km
Semi-major
6,861.2 km
B*
2.9032e-4
RAAN
328.2919°
Arg perigee
281.3189°
Mean anomaly
78.7459°
Rev number
4,771

§ Raw data

STARLINK-354371 66563U 25268G   26263.23199952  .00007737  00000+0  29032-3 0  99902 66563  43.0049 328.2919 0001807 281.3189  78.7459 15.27586599 47716

JSON: /api/v1/satellites/66563 · /tle

For live sub-satellite position, see the globe view (requires WebGL).

§ Visibility from observer

Set your observer location to see the next 7 days of passes ≥ 10°. The values pass through the URL so the page stays shareable.

No JS? Fill the form by hand. The geolocation button needs JavaScript.